カタログに戻る

DELTA 1 DEB

LostSSO
NORAD 42089·DEBRIS·🇺🇸 United States

打ち上げ Dec 15, 1968 から Vandenberg Space Force Base

Loading…

次のパス (今後24時間)

TLE

古いSource: Space-Track

元期: Feb 20, 2024, 01:24 UTC

1 42089U 68114R   24051.05901893  .00000147  00000-0  15410-2 0  9995
2 42089 102.1649   1.8080 0153703 109.7817 251.9886 12.31162652418604

AllMySatでDELTA 1 DEBをリアルタイム追跡

Download on the App Store